Location: Newark
(44.9861°N, 0.2536°E)
Time: 18:50:46
(UTC+00:00)

HuskySat-1 - Pass Details

Date: 18 July 2020
Orbit: 457 x 471 km, 51.6° (Epoch: 11 August)

Event Time Altitude Azimuth Distance (km) Brightness Sun altitude
Rises 00:41:21 0° 289° (WNW) 2,497 ? -23.5°
Reaches altitude 10° 00:43:43 10° 301° (WNW) 1,618 ? -23.5°
Maximum altitude 00:46:54 28° 2° (N) 910 ? -23.4°
Drops below altitude 10° 00:50:05 10° 63° (ENE) 1,610 ? -23.3°
Sets 00:52:26 0° 76° (ENE) 2,481 ? -23.2°
